Time,TemperatureF,DewpointF,PressureIn,WindDirection,WindDirectionDegrees,WindSpeedMPH,WindSpeedGustMPH,Humidity,HourlyPrecipIn,Conditions,Clouds,dailyrainin,SoftwareType,DateUTC
2013-07-23 00:04:00,78.3,73.8,29.92,SE,131,10.0,16.0,86,0.00,,,0.00,Wunderground v.1.15,2013-07-23 05:04:00,
2013-07-23 00:10:00,78.2,74.0,29.91,SSE,148,10.0,16.0,87,0.00,,,0.00,Wunderground v.1.15,2013-07-23 05:10:00,
2013-07-23 00:16:00,78.0,73.8,29.91,SSE,167,12.0,16.0,87,0.00,,,0.00,Wunderground v.1.15,2013-07-23 05:16:00,
2013-07-23 00:22:00,78.0,74.2,29.92,SW,215,11.0,16.0,88,0.00,,,0.00,Wunderground v.1.15,2013-07-23 05:22:00,
2013-07-23 00:28:00,77.9,74.1,29.92,SE,126,11.0,17.0,88,0.00,,,0.00,Wunderground v.1.15,2013-07-23 05:28:00,
2013-07-23 00:34:00,77.9,74.1,29.92,SE,131,10.0,16.0,88,0.00,,,0.00,Wunderground v.1.15,2013-07-23 05:34:00,
2013-07-23 00:40:00,77.9,74.1,29.92,SE,141,9.0,9.0,88,0.00,,,0.00,Wunderground v.1.15,2013-07-23 05:40:00,
2013-07-23 00:46:00,77.8,74.0,29.92,South,187,10.0,16.0,88,0.00,,,0.00,Wunderground v.1.15,2013-07-23 05:46:00,
2013-07-23 00:52:00,77.8,74.0,29.92,South,172,10.0,16.0,88,0.00,,,0.00,Wunderground v.1.15,2013-07-23 05:52:00,
2013-07-23 00:58:00,77.7,73.9,29.92,SSW,193,8.0,16.0,88,0.00,,,0.00,Wunderground v.1.15,2013-07-23 05:58:00,
2013-07-23 01:04:00,77.7,73.9,29.92,SE,146,9.0,16.0,88,0.00,,,0.00,Wunderground v.1.15,2013-07-23 06:04:00,
2013-07-23 01:10:00,77.7,73.9,29.92,SSE,148,9.0,9.0,88,0.00,,,0.00,Wunderground v.1.15,2013-07-23 06:10:00,
2013-07-23 01:16:00,77.7,73.9,29.92,SE,138,7.0,16.0,88,0.00,,,0.00,Wunderground v.1.15,2013-07-23 06:16:00,
2013-07-23 01:22:00,77.6,73.8,29.92,SSW,207,8.0,16.0,88,0.00,,,0.00,Wunderground v.1.15,2013-07-23 06:22:00,
2013-07-23 01:28:00,77.5,73.7,29.92,SE,134,9.0,16.0,88,0.00,,,0.00,Wunderground v.1.15,2013-07-23 06:28:00,
2013-07-23 01:34:00,77.4,73.6,29.92,SE,145,10.0,16.0,88,0.00,,,0.00,Wunderground v.1.15,2013-07-23 06:34:00,
2013-07-23 01:40:00,77.3,73.5,29.92,SE,139,10.0,16.0,88,0.00,,,0.00,Wunderground v.1.15,2013-07-23 06:40:00,
2013-07-23 01:46:00,77.3,73.5,29.92,SE,137,10.0,16.0,88,0.00,,,0.00,Wunderground v.1.15,2013-07-23 06:46:00,
2013-07-23 01:52:00,77.1,73.3,29.92,SE,141,11.0,16.0,88,0.00,,,0.00,Wunderground v.1.15,2013-07-23 06:52:00,
2013-07-23 01:58:00,77.1,73.6,29.92,South,191,11.0,16.0,89,0.00,,,0.00,Wunderground v.1.15,2013-07-23 06:58:00,
2013-07-23 02:04:00,77.0,73.5,29.92,SSE,148,11.0,17.0,89,0.00,,,0.00,Wunderground v.1.15,2013-07-23 07:04:00,
2013-07-23 02:10:00,77.0,73.5,29.92,South,191,11.0,11.0,89,0.00,,,0.00,Wunderground v.1.15,2013-07-23 07:10:00,
2013-07-23 02:16:00,77.0,73.5,29.92,South,172,10.0,16.0,89,0.00,,,0.00,Wunderground v.1.15,2013-07-23 07:16:00,
2013-07-23 02:22:00,76.9,73.4,29.92,SE,129,11.0,16.0,89,0.00,,,0.00,Wunderground v.1.15,2013-07-23 07:22:00,
2013-07-23 02:28:00,76.9,73.4,29.92,SSE,158,10.0,16.0,89,0.00,,,0.00,Wunderground v.1.15,2013-07-23 07:28:00,
2013-07-23 02:34:00,76.9,73.4,29.92,SSE,165,9.0,16.0,89,0.00,,,0.00,Wunderground v.1.15,2013-07-23 07:34:00,
2013-07-23 02:40:00,76.8,73.3,29.91,SSE,162,10.0,16.0,89,0.00,,,0.00,Wunderground v.1.15,2013-07-23 07:40:00,
2013-07-23 02:46:00,76.9,73.4,29.91,SSE,158,11.0,16.0,89,0.00,,,0.00,Wunderground v.1.15,2013-07-23 07:46:00,
2013-07-23 02:52:00,76.8,73.3,29.91,South,184,11.0,16.0,89,0.00,,,0.00,Wunderground v.1.15,2013-07-23 07:52:00,
2013-07-23 02:58:00,76.8,73.3,29.91,South,179,11.0,16.0,89,0.00,,,0.00,Wunderground v.1.15,2013-07-23 07:58:00,
2013-07-23 03:04:00,76.8,73.3,29.91,SSE,158,10.0,16.0,89,0.00,,,0.00,Wunderground v.1.15,2013-07-23 08:04:00,
2013-07-23 03:10:00,76.8,73.3,29.91,South,176,12.0,16.0,89,0.00,,,0.00,Wunderground v.1.15,2013-07-23 08:10:00,
2013-07-23 03:16:00,76.7,73.2,29.91,South,172,11.0,16.0,89,0.00,,,0.00,Wunderground v.1.15,2013-07-23 08:16:00,
2013-07-23 03:22:00,76.6,73.1,29.91,SSE,159,11.0,14.0,89,0.00,,,0.00,Wunderground v.1.15,2013-07-23 08:22:00,
2013-07-23 03:28:00,76.4,72.9,29.91,South,186,11.0,16.0,89,0.00,,,0.00,Wunderground v.1.15,2013-07-23 08:28:00,
2013-07-23 03:34:00,76.3,72.8,29.91,SW,214,10.0,16.0,89,0.00,,,0.00,Wunderground v.1.15,2013-07-23 08:34:00,
2013-07-23 03:40:00,76.1,72.6,29.91,South,187,10.0,10.0,89,0.00,,,0.00,Wunderground v.1.15,2013-07-23 08:40:00,
2013-07-23 03:46:00,76.1,72.6,29.91,SSE,155,10.0,16.0,89,0.00,,,0.00,Wunderground v.1.15,2013-07-23 08:46:00,
2013-07-23 03:52:00,76.1,72.6,29.91,SSW,194,11.0,16.0,89,0.00,,,0.00,Wunderground v.1.15,2013-07-23 08:52:00,
2013-07-23 03:58:00,76.1,72.3,29.91,SSW,193,12.0,16.0,88,0.00,,,0.00,Wunderground v.1.15,2013-07-23 08:58:00,
2013-07-23 04:04:00,76.0,72.5,29.91,SSE,150,10.0,16.0,89,0.00,,,0.00,Wunderground v.1.15,2013-07-23 09:04:00,
2013-07-23 04:10:00,76.0,72.2,29.91,South,177,11.0,16.0,88,0.00,,,0.00,Wunderground v.1.15,2013-07-23 09:10:00,
2013-07-23 04:16:00,75.9,72.1,29.92,South,170,12.0,16.0,88,0.00,,,0.00,Wunderground v.1.15,2013-07-23 09:16:00,
2013-07-23 04:22:00,75.8,72.3,29.92,SSW,192,11.0,16.0,89,0.00,,,0.00,Wunderground v.1.15,2013-07-23 09:22:00,
2013-07-23 04:28:00,75.8,72.3,29.92,South,184,10.0,16.0,89,0.00,,,0.00,Wunderground v.1.15,2013-07-23 09:28:00,
2013-07-23 04:34:00,75.7,72.2,29.92,SE,132,9.0,12.0,89,0.00,,,0.00,Wunderground v.1.15,2013-07-23 09:34:00,
2013-07-23 04:40:00,75.7,72.2,29.92,South,169,9.0,16.0,89,0.00,,,0.00,Wunderground v.1.15,2013-07-23 09:40:00,
2013-07-23 04:46:00,75.6,72.1,29.92,South,177,9.0,16.0,89,0.00,,,0.00,Wunderground v.1.15,2013-07-23 09:46:00,
2013-07-23 04:52:00,75.5,72.0,29.92,South,179,9.0,16.0,89,0.00,,,0.00,Wunderground v.1.15,2013-07-23 09:52:00,
2013-07-23 04:58:00,75.4,71.9,29.92,SSE,165,11.0,16.0,89,0.00,,,0.00,Wunderground v.1.15,2013-07-23 09:58:00,
2013-07-23 05:04:00,75.3,71.8,29.92,South,178,10.0,16.0,89,0.00,,,0.00,Wunderground v.1.15,2013-07-23 10:04:00,
2013-07-23 05:10:00,75.2,72.1,29.92,SW,225,9.0,16.0,90,0.00,,,0.00,Wunderground v.1.15,2013-07-23 10:10:00,
2013-07-23 05:16:00,75.1,72.0,29.92,South,174,8.0,16.0,90,0.00,,,0.00,Wunderground v.1.15,2013-07-23 10:16:00,
2013-07-23 05:22:00,75.1,72.0,29.92,South,186,8.0,16.0,90,0.00,,,0.00,Wunderground v.1.15,2013-07-23 10:22:00,
2013-07-23 05:28:00,75.0,71.9,29.93,SE,141,8.0,16.0,90,0.00,,,0.00,Wunderground v.1.15,2013-07-23 10:28:00,
2013-07-23 05:34:00,75.0,71.9,29.93,SSE,155,8.0,16.0,90,0.00,,,0.00,Wunderground v.1.15,2013-07-23 10:34:00,
2013-07-23 05:40:00,75.0,71.9,29.92,SSE,150,9.0,16.0,90,0.00,,,0.00,Wunderground v.1.15,2013-07-23 10:40:00,
2013-07-23 05:46:00,74.9,72.1,29.92,SSW,193,9.0,16.0,91,0.00,,,0.00,Wunderground v.1.15,2013-07-23 10:46:00,
2013-07-23 05:52:00,74.8,72.0,29.92,South,181,8.0,16.0,91,0.00,,,0.00,Wunderground v.1.15,2013-07-23 10:52:00,
2013-07-23 05:58:00,74.7,71.9,29.92,SSW,205,8.0,16.0,91,0.00,,,0.00,Wunderground v.1.15,2013-07-23 10:58:00,
2013-07-23 06:04:00,74.6,71.8,29.92,South,176,10.0,11.0,91,0.00,,,0.00,Wunderground v.1.15,2013-07-23 11:04:00,
2013-07-23 06:10:00,74.6,71.8,29.92,South,170,11.0,12.0,91,0.00,,,0.00,Wunderground v.1.15,2013-07-23 11:10:00,
2013-07-23 06:16:00,74.5,71.7,29.93,ESE,118,9.0,12.0,91,0.00,,,0.00,Wunderground v.1.15,2013-07-23 11:16:00,
2013-07-23 06:22:00,74.6,71.8,29.93,South,172,9.0,10.0,91,0.00,,,0.00,Wunderground v.1.15,2013-07-23 11:22:00,
2013-07-23 06:28:00,74.6,71.8,29.93,SE,145,8.0,12.0,91,0.00,,,0.00,Wunderground v.1.15,2013-07-23 11:28:00,
2013-07-23 06:34:00,74.5,71.7,29.93,SSW,203,8.0,13.0,91,0.00,,,0.00,Wunderground v.1.15,2013-07-23 11:34:00,
2013-07-23 06:40:00,74.5,71.7,29.93,SSE,164,9.0,9.0,91,0.00,,,0.00,Wunderground v.1.15,2013-07-23 11:40:00,
2013-07-23 06:46:00,74.5,71.7,29.93,SE,138,8.0,9.0,91,0.00,,,0.00,Wunderground v.1.15,2013-07-23 11:46:00,
2013-07-23 06:52:00,74.5,71.7,29.93,South,179,8.0,9.0,91,0.00,,,0.00,Wunderground v.1.15,2013-07-23 11:52:00,
2013-07-23 06:58:00,74.5,71.7,29.93,SE,131,9.0,14.0,91,0.00,,,0.00,Wunderground v.1.15,2013-07-23 11:58:00,
2013-07-23 07:04:00,74.4,71.6,29.94,SE,143,9.0,14.0,91,0.00,,,0.00,Wunderground v.1.15,2013-07-23 12:04:00,
2013-07-23 07:10:00,74.4,71.6,29.94,SE,145,7.0,14.0,91,0.00,,,0.00,Wunderground v.1.15,2013-07-23 12:10:00,
2013-07-23 07:16:00,74.4,71.6,29.94,SW,214,8.0,14.0,91,0.00,,,0.00,Wunderground v.1.15,2013-07-23 12:16:00,
2013-07-23 07:22:00,74.4,71.6,29.94,SSE,165,8.0,14.0,91,0.00,,,0.00,Wunderground v.1.15,2013-07-23 12:22:00,
2013-07-23 07:28:00,74.4,71.6,29.94,SSE,148,8.0,14.0,91,0.00,,,0.00,Wunderground v.1.15,2013-07-23 12:28:00,
2013-07-23 07:34:00,74.4,71.6,29.94,SE,132,9.0,14.0,91,0.00,,,0.00,Wunderground v.1.15,2013-07-23 12:34:00,
2013-07-23 07:40:00,74.4,71.6,29.94,South,169,8.0,14.0,91,0.00,,,0.00,Wunderground v.1.15,2013-07-23 12:40:00,
2013-07-23 07:46:00,74.4,71.6,29.94,SSE,155,9.0,14.0,91,0.00,,,0.00,Wunderground v.1.15,2013-07-23 12:46:00,
2013-07-23 07:52:00,74.5,71.4,29.94,SSE,162,8.0,14.0,90,0.00,,,0.00,Wunderground v.1.15,2013-07-23 12:52:00,
2013-07-23 07:58:00,74.6,71.5,29.94,SSE,150,8.0,14.0,90,0.00,,,0.00,Wunderground v.1.15,2013-07-23 12:58:00,
2013-07-23 08:04:00,74.7,71.6,29.94,South,169,8.0,14.0,90,0.00,,,0.00,Wunderground v.1.15,2013-07-23 13:04:00,
2013-07-23 08:10:00,74.7,71.6,29.94,SSW,211,9.0,14.0,90,0.00,,,0.00,Wunderground v.1.15,2013-07-23 13:10:00,
2013-07-23 08:16:00,74.7,71.6,29.94,South,190,10.0,14.0,90,0.00,,,0.00,Wunderground v.1.15,2013-07-23 13:16:00,
2013-07-23 08:22:00,75.0,71.9,29.94,South,188,9.0,14.0,90,0.00,,,0.00,Wunderground v.1.15,2013-07-23 13:22:00,
2013-07-23 08:28:00,75.1,71.6,29.94,South,189,9.0,14.0,89,0.00,,,0.00,Wunderground v.1.15,2013-07-23 13:28:00,
2013-07-23 08:34:00,75.3,71.8,29.94,SW,217,9.0,14.0,89,0.00,,,0.00,Wunderground v.1.15,2013-07-23 13:34:00,
2013-07-23 08:40:00,75.5,71.7,29.95,SW,215,9.0,14.0,88,0.00,,,0.00,Wunderground v.1.15,2013-07-23 13:40:00,
2013-07-23 08:46:00,75.7,71.9,29.95,SW,222,10.0,14.0,88,0.00,,,0.00,Wunderground v.1.15,2013-07-23 13:46:00,
2013-07-23 08:52:00,75.9,71.4,29.95,South,184,11.0,19.0,86,0.00,,,0.00,Wunderground v.1.15,2013-07-23 13:52:00,
2013-07-23 08:58:00,76.2,71.4,29.96,South,180,11.0,19.0,85,0.00,,,0.00,Wunderground v.1.15,2013-07-23 13:58:00,
2013-07-23 09:04:00,76.8,71.2,29.96,SSW,194,10.0,16.0,83,0.00,,,0.00,Wunderground v.1.15,2013-07-23 14:04:00,
2013-07-23 09:10:00,76.9,71.3,29.96,SSW,201,11.0,14.0,83,0.00,,,0.00,Wunderground v.1.15,2013-07-23 14:10:00,
2013-07-23 09:16:00,77.1,71.5,29.96,SSE,167,12.0,14.0,83,0.00,,,0.00,Wunderground v.1.15,2013-07-23 14:16:00,
2013-07-23 09:22:00,77.7,71.4,29.95,SSW,207,11.0,14.0,81,0.00,,,0.00,Wunderground v.1.15,2013-07-23 14:22:00,
2013-07-23 09:28:00,78.2,71.2,29.95,SSW,192,11.0,19.0,79,0.00,,,0.00,Wunderground v.1.15,2013-07-23 14:28:00,
2013-07-23 09:34:00,78.5,71.1,29.95,South,172,12.0,16.0,78,0.00,,,0.00,Wunderground v.1.15,2013-07-23 14:34:00,
2013-07-23 09:40:00,78.7,70.9,29.96,SSE,148,12.0,14.0,77,0.00,,,0.00,Wunderground v.1.15,2013-07-23 14:40:00,
2013-07-23 09:46:00,78.4,71.0,29.96,South,176,12.0,14.0,78,0.00,,,0.00,Wunderground v.1.15,2013-07-23 14:46:00,
2013-07-23 09:52:00,78.7,71.3,29.96,SSW,203,11.0,14.0,78,0.00,,,0.00,Wunderground v.1.15,2013-07-23 14:52:00,
2013-07-23 09:58:00,78.5,71.1,29.96,SSE,160,10.0,18.0,78,0.00,,,0.00,Wunderground v.1.15,2013-07-23 14:58:00,
2013-07-23 10:04:00,78.0,71.0,29.96,SSW,206,9.0,14.0,79,0.00,,,0.00,Wunderground v.1.15,2013-07-23 15:04:00,
2013-07-23 10:10:00,78.1,71.1,29.97,SSE,165,9.0,14.0,79,0.00,,,0.00,Wunderground v.1.15,2013-07-23 15:10:00,
2013-07-23 10:16:00,78.3,70.9,29.96,SSE,148,10.0,14.0,78,0.00,,,0.00,Wunderground v.1.15,2013-07-23 15:16:00,
2013-07-23 10:22:00,78.9,70.7,29.96,South,169,10.0,14.0,76,0.00,,,0.00,Wunderground v.1.15,2013-07-23 15:22:00,
2013-07-23 10:28:00,79.7,70.3,29.96,SSE,162,10.0,14.0,73,0.00,,,0.00,Wunderground v.1.15,2013-07-23 15:28:00,
2013-07-23 10:34:00,79.9,70.9,29.96,South,176,11.0,14.0,74,0.00,,,0.00,Wunderground v.1.15,2013-07-23 15:34:00,
2013-07-23 10:40:00,80.1,70.3,29.96,SSE,152,11.0,15.0,72,0.00,,,0.00,Wunderground v.1.15,2013-07-23 15:40:00,
2013-07-23 10:46:00,80.2,70.4,29.96,South,173,12.0,15.0,72,0.00,,,0.00,Wunderground v.1.15,2013-07-23 15:46:00,
2013-07-23 10:52:00,80.7,70.4,29.96,South,184,11.0,14.0,71,0.00,,,0.00,Wunderground v.1.15,2013-07-23 15:52:00,
2013-07-23 10:58:00,80.9,70.2,29.96,South,181,11.0,14.0,70,0.00,,,0.00,Wunderground v.1.15,2013-07-23 15:58:00,
2013-07-23 11:04:00,81.2,69.2,29.96,SSE,153,11.0,15.0,67,0.00,,,0.00,Wunderground v.1.15,2013-07-23 16:04:00,
2013-07-23 11:10:00,81.6,70.0,29.95,South,183,11.0,14.0,68,0.00,,,0.00,Wunderground v.1.15,2013-07-23 16:10:00,
2013-07-23 11:16:00,81.7,69.7,29.95,SE,138,11.0,16.0,67,0.00,,,0.00,Wunderground v.1.15,2013-07-23 16:16:00,
2013-07-23 11:22:00,81.8,69.3,29.95,SSE,161,11.0,14.0,66,0.00,,,0.00,Wunderground v.1.15,2013-07-23 16:22:00,
2013-07-23 11:28:00,82.4,70.8,29.95,SSE,150,10.0,14.0,68,0.00,,,0.00,Wunderground v.1.15,2013-07-23 16:28:00,
2013-07-23 11:34:00,82.5,70.9,29.95,South,172,10.0,17.0,68,0.00,,,0.00,Wunderground v.1.15,2013-07-23 16:34:00,
2013-07-23 11:40:00,82.7,70.2,29.95,South,169,9.0,9.0,66,0.00,,,0.00,Wunderground v.1.15,2013-07-23 16:40:00,
2013-07-23 11:46:00,82.9,69.5,29.95,SE,136,11.0,18.0,64,0.00,,,0.00,Wunderground v.1.15,2013-07-23 16:46:00,
2013-07-23 11:52:00,83.6,69.7,29.95,South,173,10.0,14.0,63,0.00,,,0.00,Wunderground v.1.15,2013-07-23 16:52:00,
2013-07-23 11:58:00,83.9,68.5,29.95,SE,146,10.0,14.0,60,0.00,,,0.00,Wunderground v.1.15,2013-07-23 16:58:00,
2013-07-23 12:04:00,84.1,68.7,29.95,SSE,160,11.0,14.0,60,0.00,,,0.00,Wunderground v.1.15,2013-07-23 17:04:00,
2013-07-23 12:10:00,84.7,69.8,29.95,SSW,194,9.0,9.0,61,0.00,,,0.00,Wunderground v.1.15,2013-07-23 17:10:00,
2013-07-23 12:16:00,84.9,69.5,29.95,SSE,150,9.0,17.0,60,0.00,,,0.00,Wunderground v.1.15,2013-07-23 17:16:00,
2013-07-23 12:22:00,85.0,69.6,29.94,SE,124,10.0,14.0,60,0.00,,,0.00,Wunderground v.1.15,2013-07-23 17:22:00,
2013-07-23 12:28:00,85.0,68.6,29.95,SSW,200,11.0,14.0,58,0.00,,,0.00,Wunderground v.1.15,2013-07-23 17:28:00,
2013-07-23 12:34:00,85.1,68.7,29.95,South,172,12.0,17.0,58,0.00,,,0.00,Wunderground v.1.15,2013-07-23 17:34:00,
2013-07-23 12:40:00,85.4,68.9,29.94,South,173,11.0,11.0,58,0.00,,,0.00,Wunderground v.1.15,2013-07-23 17:40:00,
2013-07-23 12:46:00,86.1,68.6,29.94,SE,138,10.0,16.0,56,0.00,,,0.00,Wunderground v.1.15,2013-07-23 17:46:00,
2013-07-23 12:52:00,86.1,68.6,29.94,SE,138,10.0,14.0,56,0.00,,,0.00,Wunderground v.1.15,2013-07-23 17:52:00,
2013-07-23 12:58:00,86.7,69.1,29.94,SSW,198,10.0,15.0,56,0.00,,,0.00,Wunderground v.1.15,2013-07-23 17:58:00,
2013-07-23 13:04:00,87.0,68.3,29.94,SSE,165,11.0,19.0,54,0.00,,,0.00,Wunderground v.1.15,2013-07-23 18:04:00,
2013-07-23 13:10:00,87.1,69.0,29.93,SSW,198,12.0,12.0,55,0.00,,,0.00,Wunderground v.1.15,2013-07-23 18:10:00,
2013-07-23 13:16:00,87.1,67.9,29.94,SSE,162,11.0,15.0,53,0.00,,,0.00,Wunderground v.1.15,2013-07-23 18:16:00,
2013-07-23 13:22:00,87.4,66.5,29.93,South,174,12.0,14.0,50,0.00,,,0.00,Wunderground v.1.15,2013-07-23 18:22:00,
2013-07-23 13:28:00,88.2,67.8,29.93,SSW,203,11.0,14.0,51,0.00,,,0.00,Wunderground v.1.15,2013-07-23 18:28:00,
2013-07-23 13:34:00,88.4,66.8,29.93,South,186,12.0,14.0,49,0.00,,,0.00,Wunderground v.1.15,2013-07-23 18:34:00,
2013-07-23 13:40:00,88.6,66.4,29.93,SSW,203,13.0,18.0,48,0.00,,,0.00,Wunderground v.1.15,2013-07-23 18:40:00,
2013-07-23 13:46:00,88.5,66.9,29.93,SW,218,13.0,18.0,49,0.00,,,0.00,Wunderground v.1.15,2013-07-23 18:46:00,
2013-07-23 13:52:00,88.8,67.2,29.92,SE,138,13.0,19.0,49,0.00,,,0.00,Wunderground v.1.15,2013-07-23 18:52:00,
2013-07-23 13:58:00,88.7,67.1,29.92,SSE,160,14.0,19.0,49,0.00,,,0.00,Wunderground v.1.15,2013-07-23 18:58:00,
2013-07-23 14:04:00,88.6,67.6,29.92,SSE,149,13.0,14.0,50,0.00,,,0.00,Wunderground v.1.15,2013-07-23 19:04:00,
2013-07-23 14:10:00,89.1,66.2,29.92,South,188,12.0,12.0,47,0.00,,,0.00,Wunderground v.1.15,2013-07-23 19:10:00,
2013-07-23 14:16:00,89.8,66.3,29.92,South,190,12.0,14.0,46,0.00,,,0.00,Wunderground v.1.15,2013-07-23 19:16:00,
2013-07-23 14:22:00,89.8,66.3,29.91,SSE,158,12.0,14.0,46,0.00,,,0.00,Wunderground v.1.15,2013-07-23 19:22:00,
2013-07-23 14:28:00,89.9,65.7,29.91,South,186,12.0,14.0,45,0.00,,,0.00,Wunderground v.1.15,2013-07-23 19:28:00,
2013-07-23 14:34:00,89.9,65.1,29.91,SSE,164,14.0,14.0,44,0.00,,,0.00,Wunderground v.1.15,2013-07-23 19:34:00,
2013-07-23 14:40:00,89.9,65.1,29.91,SE,128,15.0,15.0,44,0.00,,,0.00,Wunderground v.1.15,2013-07-23 19:40:00,
2013-07-23 14:46:00,89.9,65.1,29.91,SSE,158,14.0,17.0,44,0.00,,,0.00,Wunderground v.1.15,2013-07-23 19:46:00,
2013-07-23 14:52:00,90.2,65.3,29.90,SE,138,13.0,14.0,44,0.00,,,0.00,Wunderground v.1.15,2013-07-23 19:52:00,
2013-07-23 14:58:00,90.5,66.3,29.91,SSW,209,12.0,14.0,45,0.00,,,0.00,Wunderground v.1.15,2013-07-23 19:58:00,
2013-07-23 15:04:00,91.0,67.3,29.90,SSW,193,11.0,15.0,46,0.00,,,0.00,Wunderground v.1.15,2013-07-23 20:04:00,
2013-07-23 15:10:00,90.9,67.3,29.90,South,174,11.0,14.0,46,0.00,,,0.00,Wunderground v.1.15,2013-07-23 20:10:00,
2013-07-23 15:16:00,90.8,65.9,29.90,SW,217,12.0,18.0,44,0.00,,,0.00,Wunderground v.1.15,2013-07-23 20:16:00,
2013-07-23 15:22:00,90.8,65.9,29.90,SSE,158,12.0,19.0,44,0.00,,,0.00,Wunderground v.1.15,2013-07-23 20:22:00,
2013-07-23 15:28:00,91.1,65.5,29.89,SSE,153,13.0,19.0,43,0.00,,,0.00,Wunderground v.1.15,2013-07-23 20:28:00,
2013-07-23 15:34:00,91.2,64.2,29.89,SE,134,12.0,14.0,41,0.00,,,0.00,Wunderground v.1.15,2013-07-23 20:34:00,
2013-07-23 15:40:00,90.9,65.3,29.89,SW,234,14.0,14.0,43,0.00,,,0.00,Wunderground v.1.15,2013-07-23 20:40:00,
2013-07-23 15:46:00,91.1,64.8,29.89,SSE,153,13.0,14.0,42,0.00,,,0.00,Wunderground v.1.15,2013-07-23 20:46:00,
2013-07-23 15:52:00,91.2,65.6,29.89,SW,224,12.0,14.0,43,0.00,,,0.00,Wunderground v.1.15,2013-07-23 20:52:00,
2013-07-23 15:58:00,91.2,65.6,29.88,South,172,12.0,14.0,43,0.00,,,0.00,Wunderground v.1.15,2013-07-23 20:58:00,
2013-07-23 16:04:00,91.5,64.5,29.88,SE,136,11.0,17.0,41,0.00,,,0.00,Wunderground v.1.15,2013-07-23 21:04:00,
2013-07-23 16:10:00,91.2,64.9,29.88,SE,141,12.0,12.0,42,0.00,,,0.00,Wunderground v.1.15,2013-07-23 21:10:00,
2013-07-23 16:16:00,91.3,66.3,29.88,SSE,163,12.0,14.0,44,0.00,,,0.00,Wunderground v.1.15,2013-07-23 21:16:00,
2013-07-23 16:22:00,91.3,67.0,29.88,South,187,11.0,15.0,45,0.00,,,0.00,Wunderground v.1.15,2013-07-23 21:22:00,
2013-07-23 16:28:00,91.2,67.5,29.87,SE,141,11.0,15.0,46,0.00,,,0.00,Wunderground v.1.15,2013-07-23 21:28:00,
2013-07-23 16:34:00,91.4,66.4,29.87,SSE,158,10.0,17.0,44,0.00,,,0.00,Wunderground v.1.15,2013-07-23 21:34:00,
2013-07-23 16:40:00,91.4,67.7,29.87,ESE,114,10.0,14.0,46,0.00,,,0.00,Wunderground v.1.15,2013-07-23 21:40:00,
2013-07-23 16:48:00,91.2,67.5,29.87,South,181,10.0,17.0,46,0.00,,,0.00,Wunderground v.1.15,2013-07-23 21:48:00,
2013-07-23 16:54:00,91.3,67.0,29.87,SSE,159,11.0,18.0,45,0.00,,,0.00,Wunderground v.1.15,2013-07-23 21:54:00,
2013-07-23 17:00:00,91.3,65.7,29.87,SSE,166,10.0,10.0,43,0.00,,,0.00,Wunderground v.1.15,2013-07-23 22:00:00,
2013-07-23 17:06:00,91.4,66.4,29.87,South,190,10.0,14.0,44,0.00,,,0.00,Wunderground v.1.15,2013-07-23 22:06:00,
2013-07-23 17:12:00,91.3,67.6,29.87,South,186,10.0,14.0,46,0.00,,,0.00,Wunderground v.1.15,2013-07-23 22:12:00,
2013-07-23 17:18:00,91.9,67.5,29.87,SSE,158,9.0,14.0,45,0.00,,,0.00,Wunderground v.1.15,2013-07-23 22:18:00,
2013-07-23 17:24:00,91.5,67.2,29.87,SSE,162,10.0,14.0,45,0.00,,,0.00,Wunderground v.1.15,2013-07-23 22:24:00,
2013-07-23 17:30:00,91.6,67.9,29.86,SE,146,10.0,10.0,46,0.00,,,0.00,Wunderground v.1.15,2013-07-23 22:30:00,
2013-07-23 17:36:00,91.6,67.9,29.86,SW,217,10.0,14.0,46,0.00,,,0.00,Wunderground v.1.15,2013-07-23 22:36:00,
2013-07-23 17:42:00,91.8,68.1,29.86,SSE,153,9.0,14.0,46,0.00,,,0.00,Wunderground v.1.15,2013-07-23 22:42:00,
2013-07-23 17:48:00,91.7,67.3,29.86,South,175,9.0,14.0,45,0.00,,,0.00,Wunderground v.1.15,2013-07-23 22:48:00,
2013-07-23 17:54:00,91.4,66.4,29.86,South,169,10.0,15.0,44,0.00,,,0.00,Wunderground v.1.15,2013-07-23 22:54:00,
2013-07-23 18:00:00,91.3,66.3,29.85,South,188,10.0,10.0,44,0.00,,,0.00,Wunderground v.1.15,2013-07-23 23:00:00,
2013-07-23 18:06:00,91.3,67.0,29.85,South,191,10.0,18.0,45,0.00,,,0.00,Wunderground v.1.15,2013-07-23 23:06:00,
2013-07-23 18:12:00,91.5,67.2,29.86,SE,141,9.0,19.0,45,0.00,,,0.00,Wunderground v.1.15,2013-07-23 23:12:00,
2013-07-23 18:18:00,91.5,66.5,29.85,SE,131,10.0,19.0,44,0.00,,,0.00,Wunderground v.1.15,2013-07-23 23:18:00,
2013-07-23 18:24:00,91.4,67.1,29.85,SE,141,9.0,14.0,45,0.00,,,0.00,Wunderground v.1.15,2013-07-23 23:24:00,
2013-07-23 18:30:00,91.3,67.0,29.85,SSE,165,9.0,14.0,45,0.00,,,0.00,Wunderground v.1.15,2013-07-23 23:30:00,
2013-07-23 18:36:00,91.3,67.0,29.85,SSE,153,9.0,14.0,45,0.00,,,0.00,Wunderground v.1.15,2013-07-23 23:36:00,
2013-07-23 18:42:00,91.1,67.4,29.84,SSE,167,10.0,14.0,46,0.00,,,0.00,Wunderground v.1.15,2013-07-23 23:42:00,
2013-07-23 18:48:00,91.0,67.3,29.84,SE,146,10.0,14.0,46,0.00,,,0.00,Wunderground v.1.15,2013-07-23 23:48:00,
2013-07-23 18:54:00,90.9,67.3,29.84,SSE,158,8.0,14.0,46,0.00,,,0.00,Wunderground v.1.15,2013-07-23 23:54:00,
2013-07-23 19:00:00,90.8,67.2,29.85,ESE,112,8.0,14.0,46,0.00,,,0.00,Wunderground v.1.15,2013-07-24 00:00:00,
2013-07-23 19:08:00,90.5,66.9,29.84,ESE,122,8.0,14.0,46,0.00,,,0.00,Wunderground v.1.15,2013-07-24 00:08:00,
2013-07-23 19:14:00,90.4,66.8,29.84,South,178,9.0,14.0,46,0.00,,,0.00,Wunderground v.1.15,2013-07-24 00:14:00,
2013-07-23 19:22:00,90.0,66.4,29.84,South,169,10.0,14.0,46,0.00,,,0.00,Wunderground v.1.15,2013-07-24 00:22:00,
2013-07-23 19:28:00,89.9,66.3,29.84,WSW,257,9.0,14.0,46,0.00,,,0.00,Wunderground v.1.15,2013-07-24 00:28:00,
2013-07-23 19:34:00,89.6,66.7,29.84,SSE,163,9.0,11.0,47,0.00,,,0.00,Wunderground v.1.15,2013-07-24 00:34:00,
2013-07-23 19:40:00,89.4,66.5,29.84,SE,139,8.0,14.0,47,0.00,,,0.00,Wunderground v.1.15,2013-07-24 00:40:00,
2013-07-23 19:46:00,89.1,66.2,29.84,SW,218,9.0,14.0,47,0.00,,,0.00,Wunderground v.1.15,2013-07-24 00:46:00,
2013-07-23 19:52:00,89.0,66.8,29.84,South,190,7.0,14.0,48,0.00,,,0.00,Wunderground v.1.15,2013-07-24 00:52:00,
2013-07-23 19:58:00,88.7,66.5,29.84,SE,127,7.0,14.0,48,0.00,,,0.00,Wunderground v.1.15,2013-07-24 00:58:00,
2013-07-23 20:04:00,88.4,66.2,29.83,SSE,158,8.0,14.0,48,0.00,,,0.00,Wunderground v.1.15,2013-07-24 01:04:00,
2013-07-23 20:10:00,88.0,65.8,29.83,South,171,7.0,14.0,48,0.00,,,0.00,Wunderground v.1.15,2013-07-24 01:10:00,
2013-07-23 20:16:00,87.5,66.0,29.83,ESE,110,7.0,14.0,49,0.00,,,0.00,Wunderground v.1.15,2013-07-24 01:16:00,
2013-07-23 20:22:00,87.0,65.5,29.83,SSE,150,7.0,11.0,49,0.00,,,0.00,Wunderground v.1.15,2013-07-24 01:22:00,
2013-07-23 20:28:00,86.7,65.8,29.83,SSE,159,7.0,14.0,50,0.00,,,0.00,Wunderground v.1.15,2013-07-24 01:28:00,
2013-07-23 20:34:00,86.2,65.4,29.83,SE,145,6.0,14.0,50,0.00,,,0.00,Wunderground v.1.15,2013-07-24 01:34:00,
2013-07-23 20:40:00,85.8,65.6,29.83,SSW,195,6.0,6.0,51,0.00,,,0.00,Wunderground v.1.15,2013-07-24 01:40:00,
2013-07-23 20:46:00,85.6,65.4,29.83,SSE,160,6.0,14.0,51,0.00,,,0.00,Wunderground v.1.15,2013-07-24 01:46:00,
2013-07-23 20:52:00,85.2,65.6,29.83,SE,145,6.0,14.0,52,0.00,,,0.00,Wunderground v.1.15,2013-07-24 01:52:00,
2013-07-23 20:58:00,84.9,65.3,29.83,SE,132,5.0,14.0,52,0.00,,,0.00,Wunderground v.1.15,2013-07-24 01:58:00,
2013-07-23 21:04:00,84.9,65.3,29.83,South,170,6.0,14.0,52,0.00,,,0.00,Wunderground v.1.15,2013-07-24 02:04:00,
2013-07-23 21:10:00,84.7,65.1,29.83,South,190,7.0,7.0,52,0.00,,,0.00,Wunderground v.1.15,2013-07-24 02:10:00,
2013-07-23 21:16:00,84.3,65.3,29.83,SE,139,7.0,14.0,53,0.00,,,0.00,Wunderground v.1.15,2013-07-24 02:16:00,
2013-07-23 21:22:00,84.2,65.2,29.83,South,170,7.0,14.0,53,0.00,,,0.00,Wunderground v.1.15,2013-07-24 02:22:00,
2013-07-23 21:28:00,84.2,65.2,29.83,SSE,152,7.0,14.0,53,0.00,,,0.00,Wunderground v.1.15,2013-07-24 02:28:00,
2013-07-23 21:34:00,84.1,65.1,29.83,SE,145,7.0,14.0,53,0.00,,,0.00,Wunderground v.1.15,2013-07-24 02:34:00,
2013-07-23 21:40:00,84.0,65.0,29.84,SE,135,7.0,7.0,53,0.00,,,0.00,Wunderground v.1.15,2013-07-24 02:40:00,
2013-07-23 21:46:00,84.0,65.0,29.84,SSE,167,7.0,14.0,53,0.00,,,0.00,Wunderground v.1.15,2013-07-24 02:46:00,
2013-07-23 21:52:00,83.6,64.7,29.84,South,181,7.0,14.0,53,0.00,,,0.00,Wunderground v.1.15,2013-07-24 02:52:00,
2013-07-23 21:58:00,83.6,64.7,29.85,ESE,105,6.0,14.0,53,0.00,,,0.00,Wunderground v.1.15,2013-07-24 02:58:00,
2013-07-23 22:04:00,83.5,64.6,29.85,SSE,161,7.0,14.0,53,0.00,,,0.00,Wunderground v.1.15,2013-07-24 03:04:00,
2013-07-23 22:10:00,83.2,64.8,29.85,SE,143,6.0,14.0,54,0.00,,,0.00,Wunderground v.1.15,2013-07-24 03:10:00,
2013-07-23 22:16:00,83.0,64.6,29.85,SE,134,6.0,14.0,54,0.00,,,0.00,Wunderground v.1.15,2013-07-24 03:16:00,
2013-07-23 22:26:00,82.6,65.8,29.86,SSE,148,6.0,14.0,57,0.00,,,0.00,Wunderground v.1.15,2013-07-24 03:26:00,
2013-07-23 22:32:00,82.5,66.7,29.85,SSE,167,7.0,14.0,59,0.00,,,0.00,Wunderground v.1.15,2013-07-24 03:32:00,
2013-07-23 22:38:00,82.5,67.7,29.85,SE,134,7.0,14.0,61,0.00,,,0.00,Wunderground v.1.15,2013-07-24 03:38:00,
2013-07-23 22:44:00,82.2,68.3,29.85,South,184,7.0,14.0,63,0.00,,,0.00,Wunderground v.1.15,2013-07-24 03:44:00,
2013-07-23 22:50:00,82.1,69.2,29.86,SE,141,8.0,14.0,65,0.00,,,0.00,Wunderground v.1.15,2013-07-24 03:50:00,
2013-07-23 22:56:00,81.8,69.3,29.86,SE,134,8.0,14.0,66,0.00,,,0.00,Wunderground v.1.15,2013-07-24 03:56:00,
2013-07-23 23:02:00,81.5,70.3,29.86,SE,130,8.0,12.0,69,0.00,,,0.00,Wunderground v.1.15,2013-07-24 04:02:00,
2013-07-23 23:04:00,81.4,70.2,29.86,SSE,159,8.0,14.0,69,0.00,,,0.00,Wunderground v.1.15,2013-07-24 04:04:00,
2013-07-23 23:06:00,81.4,70.7,29.86,SE,135,8.0,14.0,70,0.00,,,0.00,Wunderground v.1.15,2013-07-24 04:06:00,
2013-07-23 23:12:00,81.2,71.3,29.86,SSE,165,9.0,14.0,72,0.00,,,0.00,Wunderground v.1.15,2013-07-24 04:12:00,
2013-07-23 23:18:00,81.0,71.9,29.86,South,189,9.0,14.0,74,0.00,,,0.00,Wunderground v.1.15,2013-07-24 04:18:00,
2013-07-23 23:24:00,80.7,72.4,29.86,SE,141,10.0,14.0,76,0.00,,,0.00,Wunderground v.1.15,2013-07-24 04:24:00,
2013-07-23 23:26:00,80.6,72.3,29.86,South,174,10.0,14.0,76,0.00,,,0.00,Wunderground v.1.15,2013-07-24 04:26:00,
2013-07-23 23:32:00,80.4,72.5,29.86,SE,136,9.0,15.0,77,0.00,,,0.00,Wunderground v.1.15,2013-07-24 04:32:00,
2013-07-23 23:38:00,80.2,72.7,29.86,SE,124,9.0,15.0,78,0.00,,,0.00,Wunderground v.1.15,2013-07-24 04:38:00,
2013-07-23 23:44:00,80.1,73.0,29.86,SSE,147,10.0,16.0,79,0.00,,,0.00,Wunderground v.1.15,2013-07-24 04:44:00,
2013-07-23 23:50:00,79.9,73.2,29.86,SE,141,10.0,10.0,80,0.00,,,0.00,Wunderground v.1.15,2013-07-24 04:50:00,
2013-07-23 23:56:00,79.7,73.3,29.86,SE,130,9.0,14.0,81,0.00,,,0.00,Wunderground v.1.15,2013-07-24 04:56:00,